星链-3324 (STARLINK-3324 )

导读

STARLINK-3324是美国太空探索技术公司星链星座的成员,于2022年1月6日发射入轨,属于星链项目低轨互联网卫星星座的扩容卫星。它运行在近地轨道,承担全球网络覆盖服务任务,为偏远地区、海上空中等场景提供宽带互联网接入能力,推进星链星座全球组网进程。

基本信息
目录编号:
50814
目录名称:
STARLINK-3324
国际标识:
2022-001M
轨道中心:
EARTH
卫星名称:
星链-3324
卫星全名:
星链-3324 (STARLINK-3324 )
卫星状态:
在轨 (已飞行1623 天)
发射日期:
2022-01-06 UTC
国别 :
美国 (US)
星等 :
--
轨道信息
数据来源 国际轨道数据 AOE轨道数据
星历时间 2026-06-17T08:00:25+0800
19小时前
查看轨道信息
2026-06-14T01:00:00+0800
4天前
查看轨道信息
半长轴 6917.93km 6917.895km
偏心率 0.000145 0.0001438
轨道倾角 53.163° 53.159°
近地点辐角 116.930° 95.359°
升交点赤经 83.207° 98.004°
平近点角 243.184° 13.806°
近地点 538.789km 538.763km
远地点 540.797km 540.753km
周期 95.439分钟 95.438分钟
每日圈数 15.08824 15.088353
详细信息
固有亮度:
5
最大亮度:
2.5
卫星平台:
Starlink v1.5
覆盖范围:
全球
运营商:
太空探索技术公司
运营商所在国:
美国
制造商(研发单位):
太空探索技术公司
制造商所在国:
美国
使用方式:
暂无
卫星简介
星链(Starlink)计划是由太空探索技术公司(SpaceX)提出的一个巨型低轨卫星互联网星座项目,计划在2019年至2024年间在太空搭建由约1.2万颗卫星组成的“星链”网络,其中1584颗将部署在地球上空550千米处的近地轨道,并从2020年开始工作。该卫星仍在工作。
2D轨道图
3D轨道图
轨道高度分析图
轨道倾角分析图
轨道综合分析图
查看轨道综合分析图